Thomasville, PA

7:56 AM EST on December 08, 2016 (GMT -0500)
York

Weather History for KTHV - March, 2013

Change the Weather History Date:

Monday, March 18, 2013

  Actual Average Record
Temperature  
Mean Temperature 32 °F -  
Max Temperature 34 °F 0 °F 78 °F (2011)
Min Temperature 30 °F - 18 °F (2007)
Degree Days  
Heating Degree Days 33    
Moisture  
Dew Point 26 °F    
Average Humidity 79    
Maximum Humidity 93    
Minimum Humidity 52    
Precipitation  
Precipitation 0.29 in - - ()
Sea Level Pressure  
Sea Level Pressure 30.12 in    
Wind  
Wind Speed 5 mph (East)    
Max Wind Speed 14 mph    
Max Gust Speed 21 mph    
Visibility 5 miles    
Events Fog , Rain , Snow    
Averages and records for this station are not official NWS values.
T = Trace of Precipitation, MM = Missing Value Source: NWS Daily Summary

Daily Weather History Graph

Daily Weather History Graph

Search for Another Location

Airport or City:

Trip Planner

Search our weather history database for the weather conditions in past years. The results will help you decide how hot, cold, wet, or windy it might be!

Date:

Astronomy

Mar. 18, 2013 Rise Set
Actual Time 7:13 AM EDT 7:17 PM EDT
Civil Twilight 6:46 AM EDT 7:44 PM EDT
Nautical Twilight 6:15 AM EDT 8:16 PM EDT
Astronomical Twilight 5:43 AM EDT 8:48 PM EDT
Moon 11:11 AM EDT (3/18) 1:14 AM EDT (3/18)
Length of Visible Light 12h 57m
Length of Day
12h 03m
Waxing Crescent, 40% of the Moon is Illuminated
Mar 18
Waxing Crescent
Mar 19
First Quarter
Mar 27
Full
Apr 3
Last Quarter
Apr 10
New

Hourly Weather History & Observations

Time (EDT) Temp. Windchill Dew Point Humidity Pressure Visibility Wind Dir Wind Speed Gust Speed Precip Events Conditions
12:53 AM 33.1 °F 30.0 °F 21.0 °F 61% 30.29 in 10.0 mi East 3.5 mph - N/A   Clear
1:53 AM 32.0 °F - 21.9 °F 66% 30.31 in 10.0 mi Calm Calm - N/A   Scattered Clouds
2:53 AM 32.0 °F 26.4 °F 21.0 °F 64% 30.31 in 10.0 mi East 5.8 mph - N/A   Mostly Cloudy
3:53 AM 32.0 °F 25.6 °F 19.0 °F 59% 30.31 in 10.0 mi East 6.9 mph - N/A   Scattered Clouds
4:53 AM 32.0 °F 24.8 °F 18.0 °F 56% 30.31 in 10.0 mi East 8.1 mph - N/A   Overcast
5:53 AM 32.0 °F 25.6 °F 17.1 °F 54% 30.33 in 10.0 mi East 6.9 mph - N/A   Overcast
7:53 AM 30.9 °F 24.3 °F 17.1 °F 57% 30.33 in 10.0 mi ESE 6.9 mph - N/A   Overcast
8:53 AM 32.0 °F 25.6 °F 16.0 °F 52% 30.33 in 10.0 mi ESE 6.9 mph - N/A   Overcast
9:23 AM 30.2 °F 21.3 °F 19.4 °F 64% 30.30 in 4.0 mi ESE 10.4 mph - 0.00 in Snow Light Snow
9:45 AM 30.2 °F 24.3 °F 21.2 °F 69% 30.29 in 6.0 mi ESE 5.8 mph - 0.00 in Snow Light Snow
9:53 AM 30.9 °F 23.5 °F 21.9 °F 69% 30.31 in 9.0 mi East 8.1 mph - 0.00 in   Overcast
10:53 AM 32.0 °F 23.0 °F 21.0 °F 64% 30.29 in 10.0 mi ESE 11.5 mph 18.4 mph N/A   Overcast
11:53 AM 33.1 °F 23.4 °F 21.9 °F 64% 30.25 in 10.0 mi ESE 13.8 mph 20.7 mph N/A   Overcast
12:06 PM 33.8 °F 25.8 °F 21.2 °F 60% 30.21 in 10.0 mi ESE 10.4 mph 20.7 mph N/A   Overcast
12:53 PM 34.0 °F 26.6 °F 21.9 °F 61% 30.24 in 10.0 mi SE 9.2 mph - N/A   Overcast
1:53 PM 34.0 °F 26.0 °F 25.0 °F 70% 30.21 in 10.0 mi East 10.4 mph - N/A   Overcast
2:53 PM 33.1 °F 26.9 °F 25.0 °F 72% 30.15 in 10.0 mi ESE 6.9 mph - N/A   Overcast
3:53 PM 33.1 °F 28.7 °F 26.1 °F 75% 30.13 in 6.0 mi East 4.6 mph - N/A Rain Light Rain
4:05 PM 33.8 °F 26.4 °F 26.6 °F 75% 30.08 in 2.0 mi ESE 9.2 mph - N/A Rain Heavy Rain
4:15 PM 32.0 °F 27.5 °F 28.4 °F 87% 30.08 in 1.5 mi ESE 4.6 mph - N/A Snow Light Snow
4:28 PM 32.0 °F 28.7 °F 28.4 °F 87% 30.08 in 1.0 mi East 3.5 mph - N/A Snow Light Snow
4:39 PM 32.0 °F 28.7 °F 28.4 °F 87% 30.09 in 1.8 mi East 3.5 mph - N/A Snow Light Snow
4:46 PM 32.0 °F 28.7 °F 28.4 °F 87% 30.08 in 0.8 mi ENE 3.5 mph - N/A Snow Light Snow
4:53 PM 32.0 °F - 28.9 °F 88% 30.11 in 0.5 mi Calm Calm - N/A Fog , Snow Snow
5:01 PM 32.0 °F 28.7 °F 28.4 °F 87% 30.08 in 0.8 mi NE 3.5 mph - 0.02 in Snow Light Snow
5:27 PM 32.0 °F - 30.2 °F 93% 30.07 in 0.5 mi Calm Calm - 0.03 in Fog , Snow Light Snow
5:37 PM 32.0 °F - 30.2 °F 93% 30.06 in 0.8 mi Calm Calm - 0.04 in Snow Light Snow
5:53 PM 32.0 °F - 30.0 °F 92% 30.08 in 0.8 mi Calm Calm - 0.06 in Snow Light Snow
6:01 PM 32.0 °F - 30.2 °F 93% 30.05 in 1.0 mi Calm Calm - 0.00 in Snow Light Snow
6:12 PM 32.0 °F - 30.2 °F 93% 30.05 in 0.8 mi Calm Calm - 0.02 in Snow Light Snow
6:49 PM 32.0 °F - 30.2 °F 93% 30.02 in 1.2 mi Calm Calm - 0.07 in Snow Light Snow
6:53 PM 32.0 °F - 30.0 °F 92% 30.04 in 1.8 mi Calm Calm - 0.07 in   Overcast
7:03 PM 32.0 °F - 30.2 °F 93% 30.01 in 2.0 mi Calm Calm - 0.01 in   Overcast
7:14 PM 32.0 °F - 30.2 °F 93% 30.01 in 2.0 mi Calm Calm - 0.03 in Rain Light Freezing Rain
7:23 PM 32.0 °F 28.7 °F 30.2 °F 93% 30.02 in 3.0 mi North 3.5 mph - 0.04 in Rain Light Freezing Rain
7:45 PM 32.0 °F 27.5 °F 30.2 °F 93% 29.99 in 2.5 mi NE 4.6 mph - 0.07 in Rain Light Freezing Rain
7:53 PM 32.0 °F 27.5 °F 30.0 °F 92% 30.02 in 3.0 mi NE 4.6 mph - 0.08 in Rain Light Freezing Rain
8:50 PM 33.8 °F 30.8 °F 30.2 °F 87% 29.99 in 3.0 mi NNE 3.5 mph - 0.02 in Rain Light Rain
8:53 PM 33.1 °F 30.0 °F 30.9 °F 92% 30.01 in 2.5 mi NNE 3.5 mph - 0.02 in Rain Light Rain
9:32 PM 33.8 °F 30.8 °F 30.2 °F 87% 29.98 in 2.0 mi NNE 3.5 mph - 0.02 in Rain Light Rain
9:41 PM 33.8 °F - 30.2 °F 87% 29.97 in 2.5 mi Calm Calm - 0.03 in Rain Light Rain
9:53 PM 33.1 °F 30.0 °F 30.9 °F 92% 29.99 in 3.0 mi North 3.5 mph - 0.04 in Rain Light Rain
10:02 PM 33.8 °F 29.6 °F 30.2 °F 87% 29.96 in 2.5 mi NE 4.6 mph - 0.01 in Rain Light Rain
10:21 PM 32.0 °F 25.6 °F 30.2 °F 93% 29.93 in 3.0 mi ENE 6.9 mph - 0.01 in   Overcast
10:53 PM 33.1 °F 28.7 °F 30.0 °F 89% 29.94 in 5.0 mi ENE 4.6 mph - 0.02 in   Overcast
11:45 PM 32.0 °F - 30.2 °F 93% 29.89 in 1.5 mi Calm Calm - 0.00 in Snow Light Snow